Regional Weather Roundup
Issued by NWS

Home | Current Version | Previous Version | Text Only | Print | Product List | Glossary Off
Versions: 1 2 3 4 5 6 7 8 9 10 11 12 13 14 15 16 17 18 19 20 21 22 23 24 25 26 27 28 29 30 31 32 33 34 35 36 37 38 39 40 41 42 43 44 45 46 47 48 49 50

000
ASUS43 KLOT 220606
RWRIL

ILLINOIS REGIONAL WEATHER ROUNDUP
NATIONAL WEATHER SERVICE CHICAGO/ROMEOVILLE IL
100 AM CDT FRI AUG 22 2014

NOTE: "FAIR" INDICATES FEW OR NO CLOUDS BELOW 12,000 FEET WITH NO
SIGNIFICANT WEATHER AND/OR OBSTRUCTIONS TO VISIBILITY.

* THESE STATIONS ARE NOT UNDER NWS QUALITY CONTROL. THEY ALSO MAY NOT
  REPORT WEATHER SUCH AS PRECIPITATION OR FOG.

ILZ001-002-007-009-015-016-024-220700-
NORTHWEST ILLINOIS

CITY           SKY/WX    TMP DP  RH WIND       PRES   REMARKS
MOLINE         FAIR      74  72  93 CALM      29.88F
6HR MIN TEMP:  74; 6HR MAX TEMP:  82;

STERLING*      MOCLDY    73  72  94 SE6       29.90F
SAVANNA*       FAIR      74  71  91 CALM      29.89F
$$

ILZ003-004-008-010-011-017-018-220700-
NORTH CENTRAL ILLINOIS

CITY           SKY/WX    TMP DP  RH WIND       PRES   REMARKS
ROCKFORD       CLOUDY    74  72  93 SE6       29.92F
6HR MIN TEMP:  74; 6HR MAX TEMP:  77;

FREEPORT*      CLOUDY    73  72  96 CALM      29.94F FOG
ROCHELLE*      CLOUDY    73  70  89 S7        29.93R
DE KALB*       CLOUDY    72  71  98 CALM      29.94S FOG
PERU*          TSTM      78  75  91 NE9       29.91S HX  80
$$

ILZ005-006-012>014-019>023-220700-
NORTHEAST ILLINOIS

CITY           SKY/WX    TMP DP  RH WIND       PRES   REMARKS
CHICAGO-OHARE  TSTM      75  71  87 NW13      29.93F FOG
6HR MIN TEMP:  74; 6HR MAX TEMP:  76; 6HR PCP:  0.02;

CHICAGO-MIDWAY CLOUDY    76  73  91 SE8       29.91F
6HR MIN TEMP:  76; 6HR MAX TEMP:  78;

AURORA         MOCLDY    74  71  91 S3        29.92F
6HR MIN TEMP:  74; 6HR MAX TEMP:  78; 6HR PCP: TRACE;

LANSING*       CLOUDY    73  71  93 CALM      29.92F
JOLIET*        FAIR      73  71  93 CALM      29.92S
WAUKEGAN       HVY RAIN  71  70  96 E3        29.92F VSB 1/2
6HR MIN TEMP:  71; 6HR MAX TEMP:  73; 6HR PCP:  0.04;

DUPAGE AIRPORT CLOUDY    74  72  93 NE7       29.92S
6HR MIN TEMP:  74; 6HR MAX TEMP:  77; 6HR PCP:  0.05;

KANKAKEE*      FAIR      73  73  97 SE3       29.92F
WHEELING       HVY RAIN  75  72  90 CALM      29.94F VSB 1/2
6HR MIN TEMP:  75; 6HR MAX TEMP:  77; 6HR PCP:  0.39;

MORRIS*        TSTM      75  75 100 CALM      29.93S
ROMEOVILLE*    LGT RAIN  73  73  99 S5        29.91F
NORTHERLY ISL    N/A     73  69  87 SE6         N/A
$$

LMZ740>746-220700-
SOUTHERN LAKE MICHIGAN

STATION/POSITION SKY/WX   TEMP    WIND        PRES    VSBY  WAVE
                          AIR SEA DIR/SP/G                  HT/PER
                          (F)     (DEG/KT/KT) (MB)    (MI)  (FT/S)
SOUTHERN BUOY              69 69   70/  4/  6 1013.8F         0
WAUKEGAN HARBOR            71        CALM       N/A
HARRISON CRIB              74     180/  6/  7   N/A
BURNHAM HARBOR             73     150/  2/  8   N/A
CALUMET HARBOR             75      70/  6/  8 1012.2F
MICHIGAN CITY              72     120/  8/ 11   N/A
MICHIGAN CITY 6N           73 71  150/  6/  8   N/A           1/ 2
ST. JOSEPH                 72 71  150/  2/  4   N/A           0
$$

ILZ025>027-034>036-040-047-049-050-058-095>099-220700-
WEST-CENTRAL ILLINOIS

CITY           SKY/WX    TMP DP  RH WIND       PRES   REMARKS
QUINCY         FAIR      78  74  87 S7        29.91F HX  81
GALESBURG*     MOCLDY    78  76  94 S7        29.89F HX  81
MACOMB*        FAIR      78  75  91 S7        29.92F HX  81
JACKSONVILLE*  FAIR      81  77  86 S7        29.93F HX  89
PITTSFIELD*    FAIR      80  73  81 S6        29.93F HX  84
$$

ILZ028>032-037-038-041>044-048-051>054-059>061-220700-
CENTRAL ILLINOIS

CITY           SKY/WX    TMP DP  RH WIND       PRES   REMARKS
PONTIAC        FAIR      81  79  94 S6        29.92F HX  89
DECATUR        FAIR      80  75  84 SW12      29.94F HX  85
PEORIA         FAIR      81  75  82 SW8       29.90F HX  87
6HR MIN TEMP:  81; 6HR MAX TEMP:  86;

LACON*         CLOUDY    78  76  93 CALM      29.89F HX  81
LINCOLN*       FAIR      79  76  89 S5        29.88F HX  84
SPRINGFIELD    FAIR      81  76  84 S12       29.92F HX  87
6HR MIN TEMP:  81; 6HR MAX TEMP:  88;

TAYLORVILLE    FAIR      77  73  88 S12       29.95F
$$

ILZ033-039-045-046-055>057-062-063-220700-
EAST-CENTRAL ILLINOIS

CITY           SKY/WX    TMP DP  RH WIND       PRES   REMARKS
CHAMPAIGN      FAIR      77  75  93 S9        29.94F
DANVILLE*      RAIN      77  74  91 S10       29.92F
RANTOUL*       FAIR      80  73  79 SW9       29.94F HX  85
MATTOON        FAIR      77  74  90 S9        29.96F
PARIS*         FAIR      77  75  92 SW7       29.97F
$$

ILZ079-100>102-220700-
SOUTHWEST ILLINOIS

CITY           SKY/WX    TMP DP  RH WIND       PRES   REMARKS
ALTON          FAIR      79  79  99 S7        29.96F HX  85
BELLEVILLE     FAIR      79  76  92 VRB2      29.97S HX  83
CAHOKIA*       FAIR      78  75  90 S5        29.96S HX  81
SPARTA*        FAIR      79  74  85 S7        30.00F HX  83
$$

ILZ064>066-069>071-074>076-080>082-084>086-088>090-092>094-220700-
SOUTH-CENTRAL ILLINOIS

CITY           SKY/WX    TMP DP  RH WIND       PRES   REMARKS
CARBONDALE     FAIR      79  72  79 SW7       30.02R HX  82
6HR MIN TEMP:  79; 6HR MAX TEMP:  85;

CAIRO*         FAIR      80  74  79 CALM      30.03F HX  85
MARION         FAIR      81  73  78 S10G16    30.02S HX  85
MT. VERNON     FAIR      77  72  83 S7        30.01S
CENTRALIA*     FAIR      77  72  85 S8        29.99F
SALEM*         FAIR      81  76  86 S8        29.99S HX  87
METROPOLIS*    FAIR      79  71  75 CALM      30.03S HX  82
$$

ILZ067-068-072-073-078-083-087-091-220700-
SOUTHEAST ILLINOIS

CITY           SKY/WX    TMP DP  RH WIND       PRES   REMARKS
LAWRENCEVILLE  FAIR      75  73  93 S3        30.00F
FLORA*         FAIR      76  74  91 S8        29.99F
FAIRFIELD*     FAIR      77  75  94 S5        30.00F
HARRISBURG*    FAIR      78  75  91 SW5       30.04S HX  81
ROBINSON*      FAIR      78  76  92 SW8       30.00F HX  81
CARMI*         FAIR      75  73  94 S3        30.01F
$$

ABBREVIATIONS USED IN REMARKS
   TC - TEMPERATURE IN CELSIUS
  WCI - WIND CHILL INDEX
   HX - HEAT INDEX
  VSB - VISIBILITY
$$




USA.gov is the U.S. government's official web portal to all federal, state and local government web resources and services.